When you browse on this site, cookies collect data to enhance your experience and personalize the content and advertising you see.
Visit our Privacy Policy to learn more. By continuing to use the site, you agree to this use of cookies and data.
  • In Romania
  • List of Countries
  • For 7 days
  • Water Temperature
  • Satellite Maps
  • Weather Map
  • Weather Widgets
  • user-avatar
    Login

    Hourly Weather San Carlos

    Today, 19 February, Tuesday

    Time Temperature Precipitation Wind Pressure Humidity
    00:00 +27°C° 0 mm 2 mps 746 mmHg 69%
    01:00 +27°C° 0 mm 2 mps 746 mmHg 70%
    02:00 +26°C° 0 mm 2 mps 746 mmHg 72%
    03:00 +26°C° 0 mm 1 mps 746 mmHg 73%
    04:00 +26°C° 0 mm 1 mps 746 mmHg 75%
    05:00 +26°C° 0 mm 1 mps 746 mmHg 73%
    06:00 +26°C° 0 mm 1 mps 746 mmHg 72%
    07:00 +27°C° 0 mm 1 mps 747 mmHg 70%
    08:00 +29°C° 0 mm 1 mps 747 mmHg 60%
    09:00 +32°C° 0 mm 2 mps 747 mmHg 50%
    10:00 +35°C° 0 mm 2 mps 748 mmHg 39%
    11:00 +36°C° 0 mm 2 mps 747 mmHg 36%
    12:00 +37°C° 0 mm 2 mps 746 mmHg 33%
    13:00 +38°C° 0 mm 3 mps 745 mmHg 30%
    14:00 +38°C° 0 mm 2 mps 745 mmHg 31%
    15:00 +37°C° 0 mm 2 mps 744 mmHg 31%
    16:00 +37°C° 0 mm 2 mps 743 mmHg 31%
    17:00 +35°C° 0 mm 2 mps 744 mmHg 37%
    18:00 +32°C° 0 mm 2 mps 744 mmHg 44%
    19:00 +30°C° 0 mm 1 mps 744 mmHg 50%
    20:00 +30°C° 0 mm 2 mps 745 mmHg 56%
    21:00 +29°C° 0 mm 2 mps 745 mmHg 63%
    22:00 +28°C° 0 mm 2 mps 746 mmHg 70%
    23:00 +28°C° 0 mm 2 mps 745 mmHg 70%

    Tomorrow, 20 February, Wednesday

    Time Temperature Precipitation Wind Pressure Humidity
    00:00 +27°C° 0 mm 2 mps 745 mmHg 71%
    01:00 +27°C° 0 mm 2 mps 745 mmHg 71%
    02:00 +27°C° 0 mm 2 mps 745 mmHg 72%
    03:00 +26°C° 0 mm 1 mps 745 mmHg 73%
    04:00 +26°C° 0 mm 1 mps 745 mmHg 74%
    05:00 +26°C° 0 mm 1 mps 745 mmHg 73%
    06:00 +27°C° 0 mm 1 mps 746 mmHg 71%
    07:00 +27°C° 0 mm 1 mps 746 mmHg 70%
    08:00 +30°C° 0 mm 1 mps 747 mmHg 60%
    09:00 +32°C° 0 mm 1 mps 747 mmHg 50%
    10:00 +35°C° 0 mm 1 mps 747 mmHg 40%
    11:00 +36°C° 0 mm 1 mps 746 mmHg 37%
    12:00 +37°C° 0 mm 1 mps 745 mmHg 34%
    13:00 +39°C° 0 mm 1 mps 744 mmHg 32%
    14:00 +37°C° 0 mm 1 mps 744 mmHg 32%
    15:00 +37°C° 0 mm 1 mps 743 mmHg 33%
    16:00 +36°C° 0 mm 1 mps 742 mmHg 34%
    17:00 +35°C° 0 mm 2 mps 743 mmHg 41%
    18:00 +32°C° 0 mm 2 mps 743 mmHg 49%
    19:00 +31°C° 0 mm 3 mps 743 mmHg 56%
    20:00 +30°C° 0 mm 3 mps 744 mmHg 59%
    21:00 +29°C° 0 mm 3 mps 744 mmHg 63%
    22:00 +28°C° 0 mm 2 mps 745 mmHg 66%
    23:00 +27°C° 0 mm 2 mps 745 mmHg 66%

    Day after tomorrow, 21 February, Thursday

    Time Temperature Precipitation Wind Pressure Humidity
    00:00 +27°C° 0 mm 2 mps 745 mmHg 66%
    01:00 +26°C° 0 mm 2 mps 744 mmHg 67%
    02:00 +26°C° 0 mm 2 mps 744 mmHg 68%
    03:00 +25°C° 0 mm 1 mps 744 mmHg 70%
    04:00 +25°C° 0 mm 1 mps 744 mmHg 71%
    05:00 +25°C° 0 mm 1 mps 745 mmHg 70%
    06:00 +26°C° 0 mm 1 mps 746 mmHg 69%
    07:00 +26°C° 0 mm 1 mps 746 mmHg 68%
    08:00 +29°C° 0 mm 1 mps 747 mmHg 58%
    09:00 +32°C° 0 mm 1 mps 747 mmHg 49%
    10:00 +35°C° 0 mm 2 mps 748 mmHg 39%
    11:00 +37°C° 0 mm 2 mps 747 mmHg 36%
    12:00 +37°C° 0 mm 1 mps 745 mmHg 33%
    13:00 +39°C° 0 mm 1 mps 744 mmHg 30%
    14:00 +39°C° 0 mm 1 mps 744 mmHg 30%
    15:00 +39°C° 0 mm 1 mps 743 mmHg 29%
    16:00 +39°C° 0 mm 1 mps 742 mmHg 29%
    17:00 +36°C° 0 mm 1 mps 743 mmHg 35%
    18:00 +34°C° 0 mm 2 mps 743 mmHg 42%
    19:00 +31°C° 0 mm 2 mps 744 mmHg 49%
    20:00 +30°C° 0 mm 2 mps 744 mmHg 56%
    21:00 +29°C° 0 mm 2 mps 745 mmHg 63%
    22:00 +28°C° 0 mm 3 mps 745 mmHg 70%
    23:00 +27°C° 0 mm 2 mps 745 mmHg 71%

    22 February, Friday

    Time Temperature Precipitation Wind Pressure Humidity
    00:00 +27°C° 0 mm 2 mps 745 mmHg 73%
    01:00 +26°C° 0 mm 1 mps 745 mmHg 74%
    02:00 +26°C° 0 mm 1 mps 745 mmHg 75%
    03:00 +26°C° 0 mm 1 mps 745 mmHg 76%
    04:00 +25°C° 0 mm 1 mps 745 mmHg 78%
    05:00 +26°C° 0 mm 1 mps 745 mmHg 75%
    06:00 +26°C° 0 mm 1 mps 746 mmHg 73%
    07:00 +27°C° 0 mm 1 mps 747 mmHg 71%
    08:00 +29°C° 0 mm 1 mps 747 mmHg 60%
    09:00 +32°C° 0 mm 2 mps 747 mmHg 49%
    10:00 +35°C° 0 mm 2 mps 748 mmHg 38%
    11:00 +36°C° 0 mm 2 mps 746 mmHg 35%
    12:00 +37°C° 0 mm 2 mps 745 mmHg 32%
    13:00 +38°C° 0 mm 2 mps 744 mmHg 29%
    14:00 +38°C° 0 mm 2 mps 744 mmHg 28%
    15:00 +38°C° 0 mm 2 mps 743 mmHg 27%
    16:00 +39°C° 0 mm 2 mps 743 mmHg 25%
    17:00 +36°C° 0 mm 2 mps 743 mmHg 33%
    18:00 +34°C° 0 mm 2 mps 744 mmHg 41%
    19:00 +31°C° 0 mm 2 mps 744 mmHg 49%
    20:00 +30°C° 0 mm 2 mps 745 mmHg 56%
    21:00 +29°C° 0 mm 3 mps 745 mmHg 62%
    22:00 +27°C° 0 mm 3 mps 746 mmHg 69%
    23:00 +27°C° 0 mm 2 mps 746 mmHg 70%

    23 February, Saturday

    Time Temperature Precipitation Wind Pressure Humidity
    00:00 +26°C° 0 mm 2 mps 746 mmHg 72%
    01:00 +26°C° 0 mm 1 mps 745 mmHg 74%
    02:00 +26°C° 0 mm 1 mps 745 mmHg 76%
    03:00 +25°C° 0 mm 1 mps 745 mmHg 78%
    04:00 +25°C° 0 mm 1 mps 746 mmHg 80%
    05:00 +25°C° 0 mm 1 mps 746 mmHg 77%
    06:00 +26°C° 0 mm 1 mps 747 mmHg 75%
    07:00 +26°C° 0 mm 1 mps 747 mmHg 72%
    08:00 +29°C° 0 mm 2 mps 747 mmHg 60%
    09:00 +32°C° 0 mm 2 mps 748 mmHg 49%
    10:00 +35°C° 0 mm 2 mps 748 mmHg 37%
    11:00 +37°C° 0 mm 3 mps 747 mmHg 33%
    12:00 +38°C° 0 mm 3 mps 746 mmHg 29%
    13:00 +40°C° 0 mm 3 mps 745 mmHg 25%
    14:00 +39°C° 0 mm 3 mps 744 mmHg 24%
    15:00 +39°C° 0 mm 3 mps 744 mmHg 23%
    16:00 +39°C° 0 mm 3 mps 743 mmHg 23%
    17:00 +37°C° 0 mm 3 mps 743 mmHg 33%
    18:00 +34°C° 0 mm 3 mps 744 mmHg 43%
    19:00 +31°C° 0 mm 3 mps 744 mmHg 53%
    20:00 +30°C° 0 mm 3 mps 745 mmHg 58%
    21:00 +29°C° 0 mm 2 mps 745 mmHg 63%
    22:00 +28°C° 0 mm 2 mps 746 mmHg 68%
    23:00 +27°C° 0 mm 2 mps 746 mmHg 70%

    24 February, Sunday

    Time Temperature Precipitation Wind Pressure Humidity
    00:00 +27°C° 0 mm 2 mps 745 mmHg 71%
    01:00 +26°C° 0 mm 1 mps 745 mmHg 73%
    02:00 +26°C° 0 mm 1 mps 745 mmHg 74%
    03:00 +26°C° 0 mm 1 mps 745 mmHg 75%
    04:00 +25°C° 0 mm 1 mps 745 mmHg 75%
    05:00 +26°C° 0 mm 1 mps 746 mmHg 74%
    06:00 +26°C° 0 mm 1 mps 746 mmHg 72%
    07:00 +26°C° 0 mm 1 mps 747 mmHg 71%
    08:00 +29°C° 0 mm 2 mps 747 mmHg 56%
    09:00 +32°C° 0 mm 2 mps 747 mmHg 41%
    10:00 +36°C° 0 mm 3 mps 747 mmHg 26%
    11:00 +37°C° 0 mm 3 mps 746 mmHg 22%
    12:00 +38°C° 0 mm 3 mps 745 mmHg 18%
    13:00 +40°C° 0 mm 3 mps 744 mmHg 14%
    14:00 +40°C° 0 mm 3 mps 743 mmHg 15%
    15:00 +40°C° 0 mm 3 mps 743 mmHg 17%
    16:00 +39°C° 0 mm 3 mps 742 mmHg 18%
    17:00 +37°C° 0 mm 3 mps 743 mmHg 29%
    18:00 +34°C° 0 mm 3 mps 743 mmHg 41%
    19:00 +31°C° 0 mm 3 mps 743 mmHg 53%
    20:00 +30°C° 0 mm 3 mps 744 mmHg 57%
    21:00 +29°C° 0 mm 3 mps 744 mmHg 62%
    22:00 +28°C° 0 mm 3 mps 745 mmHg 66%
    23:00 +28°C° 0 mm 2 mps 745 mmHg 68%
    Show more